Stations météo

Publicité
Moskva, Russie (27612): Température de l'air & dewpoint: 14.10.2018 22:00:00 - 20.10.2018 22:00:00 (MSK)Moskva, Russie (27612): Vitesse du vent: 14.10.2018 22:00:00 - 20.10.2018 22:00:00 (MSK)Moskva, Russie (27612): Direction du vent: 14.10.2018 22:00:00 - 20.10.2018 22:00:00 (MSK)Moskva, Russie (27612): reduced air pressure: 14.10.2018 22:00:00 - 20.10.2018 22:00:00 (MSK)Moskva, Russie (27612): visibility: 14.10.2018 22:00:00 - 20.10.2018 22:00:00 (MSK)
Date & Time tt [°C] td [°C] ff [km/h] ff [knt] dd ppp [hPa] vv [km]
20.10.2018 22:00:00 - - - - - - -
20.10.2018 21:00:00 7,1 1,5 4 2 N 1022,9 -
20.10.2018 20:00:00 - - - - - - -
20.10.2018 19:00:00 - - - - - - -
20.10.2018 18:00:00 7,2 1,5 4 2 NW 1022,3 -
20.10.2018 17:00:00 - - - - - - -
20.10.2018 16:00:00 - - - - - - -
20.10.2018 15:00:00 7,8 1,9 4 2 WNW 1022,1 10
20.10.2018 14:00:00 - - - - - - -
20.10.2018 13:00:00 - - - - - - -
20.10.2018 12:00:00 7,7 2,1 7 4 N 1021,6 10
20.10.2018 11:00:00 - - - - - - -
20.10.2018 10:00:00 - - - - - - -
20.10.2018 09:00:00 5,3 3,3 4 2 NNW 1020,7 4,0
20.10.2018 08:00:00 - - - - - - -
20.10.2018 07:00:00 - - - - - - -
20.10.2018 06:00:00 3,3 3,0 0 0 N 1020,0 -
20.10.2018 05:00:00 - - - - - - -
20.10.2018 04:00:00 - - - - - - -
20.10.2018 03:00:00 5,2 4,0 0 0 N 1019,1 -
20.10.2018 02:00:00 - - - - - - -
20.10.2018 01:00:00 - - - - - - -
20.10.2018 00:00:00 8,5 5,4 4 2 NW 1018,2 -
19.10.2018 23:00:00 - - - - - - -
19.10.2018 22:00:00 - - - - - - -
19.10.2018 21:00:00 12,2 8,6 7 4 N 1016,8 -
19.10.2018 20:00:00 - - - - - - -
19.10.2018 19:00:00 - - - - - - -
19.10.2018 18:00:00 14,7 8,6 7 4 N 1015,5 -
19.10.2018 17:00:00 - - - - - - -
19.10.2018 16:00:00 - - - - - - -
19.10.2018 15:00:00 16,7 10,3 4 2 NW 1015,0 10
19.10.2018 14:00:00 - - - - - - -
19.10.2018 13:00:00 - - - - - - -
19.10.2018 12:00:00 15,7 10,0 4 2 W 1015,7 10
19.10.2018 11:00:00 - - - - - - -
19.10.2018 10:00:00 - - - - - - -
19.10.2018 09:00:00 12,6 9,1 4 2 W 1016,4 10
19.10.2018 08:00:00 - - - - - - -
19.10.2018 07:00:00 - - - - - - -
19.10.2018 06:00:00 10,4 8,5 0 0 N 1016,9 -
19.10.2018 05:00:00 - - - - - - -
19.10.2018 04:00:00 - - - - - - -
19.10.2018 03:00:00 11,0 8,3 0 0 N 1018,3 -
19.10.2018 02:00:00 - - - - - - -
19.10.2018 01:00:00 - - - - - - -
19.10.2018 00:00:00 13,1 8,3 4 2 WNW 1018,9 -
18.10.2018 23:00:00 - - - - - - -
18.10.2018 22:00:00 - - - - - - -
18.10.2018 21:00:00 13,5 8,0 4 2 WSW 1019,4 -
18.10.2018 20:00:00 - - - - - - -
18.10.2018 19:00:00 - - - - - - -
18.10.2018 18:00:00 13,1 8,1 0 0 N 1020,3 -
18.10.2018 17:00:00 - - - - - - -
18.10.2018 16:00:00 - - - - - - -
18.10.2018 15:00:00 17,7 7,1 4 2 W 1021,0 10
18.10.2018 14:00:00 - - - - - - -
18.10.2018 13:00:00 - - - - - - -
18.10.2018 12:00:00 16,8 7,8 4 2 WNW 1022,7 10
18.10.2018 11:00:00 - - - - - - -
18.10.2018 10:00:00 - - - - - - -
18.10.2018 09:00:00 7,7 7,6 0 0 N 1024,1 1,0
18.10.2018 08:00:00 - - - - - - -
18.10.2018 07:00:00 - - - - - - -
18.10.2018 06:00:00 4,6 4,5 0 0 N 1024,8 -
18.10.2018 05:00:00 - - - - - - -
18.10.2018 04:00:00 - - - - - - -
18.10.2018 03:00:00 5,1 4,9 0 0 N 1025,6 -
18.10.2018 02:00:00 - - - - - - -
18.10.2018 01:00:00 - - - - - - -
18.10.2018 00:00:00 6,0 5,7 0 0 N 1026,3 -
17.10.2018 23:00:00 - - - - - - -
17.10.2018 22:00:00 - - - - - - -
17.10.2018 21:00:00 7,7 6,9 0 0 N 1026,1 -
17.10.2018 20:00:00 - - - - - - -
17.10.2018 19:00:00 - - - - - - -
17.10.2018 18:00:00 11,0 7,4 0 0 N 1025,9 10
17.10.2018 17:00:00 - - - - - - -
17.10.2018 16:00:00 - - - - - - -
17.10.2018 15:00:00 15,9 6,4 0 0 N 1025,7 10
17.10.2018 14:00:00 - - - - - - -
17.10.2018 13:00:00 - - - - - - -
17.10.2018 12:00:00 15,1 5,6 4 2 W 1026,0 10
17.10.2018 11:00:00 - - - - - - -
17.10.2018 10:00:00 - - - - - - -
17.10.2018 09:00:00 10,0 5,2 4 2 W 1025,4 10
17.10.2018 08:00:00 - - - - - - -
17.10.2018 07:00:00 - - - - - - -
17.10.2018 06:00:00 6,8 4,7 0 0 N 1025,1 -
17.10.2018 05:00:00 - - - - - - -
17.10.2018 04:00:00 - - - - - - -
17.10.2018 03:00:00 8,5 4,8 0 0 N 1024,5 -
17.10.2018 02:00:00 - - - - - - -
17.10.2018 01:00:00 - - - - - - -
17.10.2018 00:00:00 10,8 4,6 0 0 N 1024,2 -
16.10.2018 23:00:00 - - - - - - -
16.10.2018 22:00:00 - - - - - - -
16.10.2018 21:00:00 13,3 4,2 4 2 WNW 1024,0 -
16.10.2018 20:00:00 - - - - - - -
16.10.2018 19:00:00 - - - - - - -
16.10.2018 18:00:00 14,2 4,0 4 2 WSW 1024,2 10
16.10.2018 17:00:00 - - - - - - -
16.10.2018 16:00:00 - - - - - - -
16.10.2018 15:00:00 16,3 3,5 4 2 W 1025,0 10
16.10.2018 14:00:00 - - - - - - -
16.10.2018 13:00:00 - - - - - - -
16.10.2018 12:00:00 14,8 5,1 4 2 W 1026,3 10
16.10.2018 11:00:00 - - - - - - -
16.10.2018 10:00:00 - - - - - - -
16.10.2018 09:00:00 8,8 7,3 4 2 WSW 1027,0 4,0
16.10.2018 08:00:00 - - - - - - -
16.10.2018 07:00:00 - - - - - - -
16.10.2018 06:00:00 6,6 6,4 0 0 N 1027,3 -
16.10.2018 05:00:00 - - - - - - -
16.10.2018 04:00:00 - - - - - - -
16.10.2018 03:00:00 7,2 6,8 0 0 N 1027,7 -
16.10.2018 02:00:00 - - - - - - -
16.10.2018 01:00:00 - - - - - - -
16.10.2018 00:00:00 9,0 7,8 0 0 N 1027,4 -
15.10.2018 23:00:00 - - - - - - -
15.10.2018 22:00:00 - - - - - - -
15.10.2018 21:00:00 9,7 8,2 0 0 N 1027,3 -
15.10.2018 20:00:00 - - - - - - -
15.10.2018 19:00:00 - - - - - - -
15.10.2018 18:00:00 12,7 8,5 0 0 N 1027,3 10
15.10.2018 17:00:00 - - - - - - -
15.10.2018 16:00:00 - - - - - - -
15.10.2018 15:00:00 17,9 8,2 4 2 WNW 1027,4 10
15.10.2018 14:00:00 - - - - - - -
15.10.2018 13:00:00 - - - - - - -
15.10.2018 12:00:00 16,0 10,0 4 2 W 1028,0 10
15.10.2018 11:00:00 - - - - - - -
15.10.2018 10:00:00 - - - - - - -
15.10.2018 09:00:00 10,6 10,4 4 2 W 1027,9 4,0
15.10.2018 08:00:00 - - - - - - -
15.10.2018 07:00:00 - - - - - - -
15.10.2018 06:00:00 8,8 8,5 0 0 N 1027,6 -
15.10.2018 05:00:00 - - - - - - -
15.10.2018 04:00:00 - - - - - - -
15.10.2018 03:00:00 10,0 9,4 0 0 N 1027,4 -
15.10.2018 02:00:00 - - - - - - -
15.10.2018 01:00:00 - - - - - - -
15.10.2018 00:00:00 12,4 10,2 0 0 N 1026,8 -
14.10.2018 23:00:00 - - - - - - -
14.10.2018 22:00:00 - - - - - - -

tt = Température de l'air
td = dewpoint
ff = Vitesse du vent
dd = Direction du vent
ppp = reduced air pressure
vv = visibility

stations d'obs. à proximité